When you browse on this site, cookies collect data to enhance your experience and personalize the content and advertising you see.
Visit our Privacy Policy to learn more. By continuing to use the site, you agree to this use of cookies and data.
  • In Austria
  • List of Countries
  • For 7 days
  • Water Temperature
  • Satellite Maps
  • Weather Map
  • News
  • Weather Widgets
  • user-avatar
    Login

    Hourly Weather Lubango

    Today, 16 February, Saturday

    Time Temperature Precipitation Wind Pressure Humidity
    00:00 +16°C° 0 mm 1 mps 609 mmHg 48%
    01:00 +16°C° 0 mm 1 mps 609 mmHg 48%
    02:00 +16°C° 0 mm 1 mps 609 mmHg 48%
    03:00 +18°C° 0 mm 1 mps 609 mmHg 47%
    04:00 +18°C° 0 mm 1 mps 609 mmHg 47%
    05:00 +16°C° 0 mm 0 mps 609 mmHg 48%
    06:00 +16°C° 0 mm 0 mps 610 mmHg 49%
    07:00 +17°C° 0 mm 0 mps 610 mmHg 52%
    08:00 +19°C° 0 mm 0 mps 611 mmHg 47%
    09:00 +21°C° 0 mm 0 mps 612 mmHg 43%
    10:00 +25°C° 0 mm 1 mps 612 mmHg 38%
    11:00 +26°C° 0 mm 1 mps 612 mmHg 36%
    12:00 +28°C° 0 mm 1 mps 613 mmHg 33%
    13:00 +29°C° 0 mm 2 mps 613 mmHg 30%
    14:00 +28°C° 0 mm 2 mps 612 mmHg 33%
    15:00 +27°C° 0 mm 2 mps 611 mmHg 35%
    16:00 +26°C° 0 mm 3 mps 610 mmHg 37%
    17:00 +24°C° 0 mm 2 mps 609 mmHg 41%
    18:00 +21°C° 0 mm 2 mps 609 mmHg 45%
    19:00 +19°C° 0 mm 2 mps 608 mmHg 49%
    20:00 +18°C° 0 mm 2 mps 609 mmHg 50%
    21:00 +18°C° 0 mm 2 mps 609 mmHg 51%
    22:00 +18°C° 0 mm 1 mps 609 mmHg 52%
    23:00 +18°C° 0 mm 1 mps 609 mmHg 52%

    Tomorrow, 17 February, Sunday

    Time Temperature Precipitation Wind Pressure Humidity
    00:00 +16°C° 0 mm 1 mps 609 mmHg 52%
    01:00 +16°C° 0 mm 1 mps 609 mmHg 53%
    02:00 +16°C° 0 mm 1 mps 608 mmHg 52%
    03:00 +16°C° 0 mm 1 mps 608 mmHg 52%
    04:00 +16°C° 0 mm 1 mps 608 mmHg 52%
    05:00 +16°C° 0 mm 1 mps 608 mmHg 51%
    06:00 +18°C° 0 mm 1 mps 609 mmHg 51%
    07:00 +19°C° 0 mm 1 mps 609 mmHg 50%
    08:00 +21°C° 0 mm 1 mps 611 mmHg 44%
    09:00 +24°C° 0 mm 1 mps 612 mmHg 37%
    10:00 +27°C° 0 mm 1 mps 613 mmHg 30%
    11:00 +28°C° 0 mm 1 mps 613 mmHg 28%
    12:00 +30°C° 0 mm 1 mps 613 mmHg 27%
    13:00 +31°C° 0 mm 2 mps 613 mmHg 26%
    14:00 +30°C° 0 mm 2 mps 612 mmHg 29%
    15:00 +28°C° 0 mm 2 mps 610 mmHg 31%
    16:00 +27°C° 0 mm 2 mps 609 mmHg 34%
    17:00 +25°C° 0 mm 2 mps 609 mmHg 38%
    18:00 +23°C° 0 mm 2 mps 608 mmHg 43%
    19:00 +20°C° 0 mm 2 mps 608 mmHg 47%
    20:00 +19°C° 0 mm 2 mps 608 mmHg 48%
    21:00 +20°C° 0 mm 1 mps 608 mmHg 50%
    22:00 +19°C° 0 mm 1 mps 609 mmHg 52%
    23:00 +19°C° 0 mm 1 mps 609 mmHg 52%

    Day after tomorrow, 18 February, Monday

    Time Temperature Precipitation Wind Pressure Humidity
    00:00 +19°C° 0 mm 1 mps 609 mmHg 51%
    01:00 +18°C° 0 mm 1 mps 609 mmHg 51%
    02:00 +18°C° 0 mm 1 mps 608 mmHg 52%
    03:00 +18°C° 0 mm 1 mps 608 mmHg 52%
    04:00 +16°C° 0 mm 1 mps 608 mmHg 53%
    05:00 +18°C° 0 mm 1 mps 608 mmHg 53%
    06:00 +18°C° 0 mm 1 mps 609 mmHg 53%
    07:00 +19°C° 0 mm 1 mps 609 mmHg 53%
    08:00 +22°C° 0 mm 1 mps 610 mmHg 45%
    09:00 +25°C° 0 mm 1 mps 611 mmHg 36%
    10:00 +28°C° 0 mm 2 mps 613 mmHg 28%
    11:00 +29°C° 0 mm 2 mps 612 mmHg 26%
    12:00 +30°C° 0 mm 2 mps 612 mmHg 24%
    13:00 +31°C° 0 mm 2 mps 612 mmHg 23%
    14:00 +30°C° 0 mm 2 mps 611 mmHg 25%
    15:00 +29°C° 0 mm 2 mps 610 mmHg 28%
    16:00 +28°C° 0 mm 3 mps 609 mmHg 31%
    17:00 +26°C° 0 mm 2 mps 608 mmHg 39%
    18:00 +23°C° 0 mm 2 mps 608 mmHg 47%
    19:00 +20°C° 0 mm 2 mps 607 mmHg 55%
    20:00 +20°C° 0 mm 1 mps 607 mmHg 59%
    21:00 +19°C° 0 mm 1 mps 608 mmHg 62%
    22:00 +18°C° 0 mm 1 mps 608 mmHg 66%
    23:00 +18°C° 0 mm 1 mps 608 mmHg 66%

    19 February, Tuesday

    Time Temperature Precipitation Wind Pressure Humidity
    00:00 +18°C° 0 mm 1 mps 608 mmHg 66%
    01:00 +16°C° 0 mm 1 mps 607 mmHg 66%
    02:00 +16°C° 0 mm 1 mps 607 mmHg 65%
    03:00 +16°C° 0 mm 1 mps 607 mmHg 64%
    04:00 +18°C° 0 mm 1 mps 607 mmHg 64%
    05:00 +18°C° 0 mm 1 mps 607 mmHg 62%
    06:00 +18°C° 0 mm 1 mps 608 mmHg 61%
    07:00 +19°C° 0 mm 1 mps 608 mmHg 60%
    08:00 +21°C° 0 mm 1 mps 609 mmHg 54%
    09:00 +23°C° 0 mm 1 mps 610 mmHg 47%
    10:00 +25°C° 0 mm 1 mps 611 mmHg 41%
    11:00 +26°C° 0 mm 1 mps 610 mmHg 40%
    12:00 +27°C° 0 mm 1 mps 610 mmHg 39%
    13:00 +27°C° 0 mm 1 mps 609 mmHg 38%
    14:00 +26°C° 0.1 mm 1 mps 608 mmHg 43%
    15:00 +24°C° 0.1 mm 1 mps 607 mmHg 48%
    16:00 +22°C° 0.1 mm 1 mps 606 mmHg 53%
    17:00 +22°C° 0.2 mm 1 mps 606 mmHg 58%
    18:00 +21°C° 0.2 mm 1 mps 606 mmHg 63%
    19:00 +20°C° 0.2 mm 1 mps 607 mmHg 68%
    20:00 +19°C° 1.2 mm 1 mps 607 mmHg 73%
    21:00 +19°C° 1.2 mm 1 mps 607 mmHg 78%
    22:00 +18°C° 1.2 mm 1 mps 608 mmHg 83%
    23:00 +18°C° 0.7 mm 1 mps 608 mmHg 82%

    20 February, Wednesday

    Time Temperature Precipitation Wind Pressure Humidity
    00:00 +18°C° 0.7 mm 1 mps 608 mmHg 80%
    01:00 +18°C° 0.7 mm 1 mps 608 mmHg 79%
    02:00 +18°C° 0 mm 1 mps 607 mmHg 79%
    03:00 +18°C° 0 mm 1 mps 607 mmHg 79%
    04:00 +16°C° 0 mm 1 mps 606 mmHg 78%
    05:00 +18°C° 0.1 mm 1 mps 607 mmHg 75%
    06:00 +18°C° 0.1 mm 1 mps 607 mmHg 72%
    07:00 +18°C° 0.1 mm 1 mps 608 mmHg 68%
    08:00 +19°C° 0.1 mm 2 mps 609 mmHg 62%
    09:00 +21°C° 0.1 mm 2 mps 610 mmHg 56%
    10:00 +24°C° 0.1 mm 2 mps 611 mmHg 49%
    11:00 +25°C° 0 mm 2 mps 610 mmHg 48%
    12:00 +25°C° 0 mm 2 mps 610 mmHg 46%
    13:00 +26°C° 0 mm 2 mps 609 mmHg 45%
    14:00 +26°C° 0 mm 2 mps 609 mmHg 45%
    15:00 +26°C° 0 mm 2 mps 608 mmHg 44%
    16:00 +26°C° 0 mm 1 mps 608 mmHg 44%
    17:00 +24°C° 0.1 mm 1 mps 608 mmHg 50%
    18:00 +23°C° 0.1 mm 1 mps 608 mmHg 55%
    19:00 +21°C° 0.1 mm 1 mps 608 mmHg 60%
    20:00 +20°C° 0.2 mm 1 mps 608 mmHg 65%
    21:00 +19°C° 0.2 mm 1 mps 608 mmHg 69%
    22:00 +18°C° 0.2 mm 1 mps 608 mmHg 74%
    23:00 +18°C° 0 mm 1 mps 608 mmHg 73%

    21 February, Thursday

    Time Temperature Precipitation Wind Pressure Humidity
    00:00 +18°C° 0 mm 1 mps 608 mmHg 72%
    01:00 +18°C° 0 mm 1 mps 608 mmHg 71%
    02:00 +18°C° 0 mm 1 mps 607 mmHg 71%
    03:00 +18°C° 0 mm 1 mps 607 mmHg 71%
    04:00 +16°C° 0 mm 1 mps 607 mmHg 71%
    05:00 +18°C° 0 mm 1 mps 607 mmHg 69%
    06:00 +19°C° 0 mm 1 mps 608 mmHg 67%
    07:00 +19°C° 0 mm 1 mps 609 mmHg 65%
    08:00 +22°C° 0 mm 1 mps 610 mmHg 58%
    09:00 +24°C° 0 mm 2 mps 611 mmHg 50%
    10:00 +27°C° 0 mm 2 mps 612 mmHg 42%
    11:00 +27°C° 0 mm 2 mps 611 mmHg 41%
    12:00 +27°C° 0 mm 2 mps 611 mmHg 41%
    13:00 +27°C° 0 mm 2 mps 610 mmHg 41%
    14:00 +26°C° 0.2 mm 2 mps 609 mmHg 45%
    15:00 +25°C° 0.2 mm 1 mps 609 mmHg 49%
    16:00 +24°C° 0.2 mm 1 mps 608 mmHg 53%
    17:00 +23°C° 0.5 mm 1 mps 608 mmHg 59%
    18:00 +22°C° 0.5 mm 1 mps 608 mmHg 65%
    19:00 +21°C° 0.5 mm 1 mps 609 mmHg 70%
    20:00 +20°C° 1.1 mm 1 mps 609 mmHg 75%
    21:00 +19°C° 1.1 mm 1 mps 609 mmHg 80%
    22:00 +18°C° 1.1 mm 1 mps 609 mmHg 85%
    23:00 +18°C° 0.3 mm 1 mps 609 mmHg 86%
    Show more